Flag for Norway Weather past 2 weeks in Sandefjord, Norway

Now
46 °F

Sleet. Fog.


Feels Like: 43 °F
Forecast: 46 / 65 °F
Wind: 7 mph from North

Location: Torp

Current Time: Sep 19, 2014 at 8:02:36 AM

Latest Report: Sep 19, 2014 at 7:20 AM


Visibility: N/A

Pressure: 30.09 "Hg

Humidity: 100%

Dew point: 46 °F

Location of SandefjordLocation

Historic Weather in Sandefjord — Graph

°F

Sandefjord temperature yesterday

Maximum temperature yesterday: 63 °F (at 2:50 PM)
Minimum temperature yesterday: 45 °F (at 12:50 AM)
Average temperature yesterday: 53 °F

Past Weeks' High & Low Weather Summary

 TemperatureHumidityPressure
High68 °F (Sep 4, 12:20 PM)100% (Sep 4, 6:20 AM)30.48 "Hg (Sep 4, 6:20 AM)
Low45 °F (Sep 15, 7:20 AM)46% (Sep 13, 4:50 PM)29.77 "Hg (Sep 9, 1:20 AM)
Average56 °F84%30.18 "Hg
* Reported Sep 4 6:20 AM — Sep 19 6:50 AM, Sandefjord, Weather by CustomWeather, © 2014

Note: Actual official high and low records may vary slightly from our data, if they occured in-between our weather recording intervals... More about our weather records

Advertising

Sandefjord weather history for previous 24 hours

 ConditionsComfort  
Time TempWeatherWind HumidityBarometerVisibility
6:50 AM
Sep 19
46 °FFog.7 mph93%30.09 "HgN/A
6:20 AM46 °FClear.8 mph93%30.09 "Hg10 mi
5:50 AM48 °FClear.7 mph94%30.09 "Hg10 mi
5:20 AM48 °FOvercast.7 mph94%30.09 "HgN/A
4:50 AM48 °FFog.5 mph94%30.09 "Hg2 mi
4:20 AM48 °FFog.5 mph100%30.12 "Hg3 mi
3:50 AM48 °FPassing clouds.5 mph100%30.12 "Hg2 mi
3:20 AM50 °FPassing clouds.5 mph94%30.12 "Hg3 mi
2:50 AM50 °FPassing clouds.3 mph94%30.12 "Hg3 mi
2:20 AM50 °FPassing clouds.3 mph94%30.12 "Hg4 mi
1:50 AM50 °FPassing clouds.3 mph94%30.12 "Hg5 mi
1:20 AM50 °FPassing clouds.3 mph94%30.12 "Hg5 mi
12:50 AM52 °FPassing clouds.5 mph94%30.15 "Hg4 mi
12:20 AM52 °FPassing clouds.5 mph94%30.15 "Hg5 mi
11:50 PM
Sep 18
52 °FPassing clouds.3 mph94%30.15 "HgN/A
11:20 PM52 °FClear.3 mph94%30.15 "Hg10 mi
10:50 PM54 °FClear.3 mph88%30.15 "Hg10 mi
9:50 PM54 °FPassing clouds.5 mph88%30.15 "HgN/A
9:20 PM54 °FPassing clouds.3 mph94%30.15 "HgN/A
8:50 PM55 °FClear.2 mph88%30.15 "Hg10 mi
8:20 PM55 °FSunny.3 mph88%30.15 "Hg10 mi
7:56 PM57 °FSunny.2 mph82%30.15 "Hg10 mi
7:20 PM59 °FSunny.2 mph77%30.15 "Hg10 mi
6:20 PM63 °FPassing clouds.3 mph68%30.15 "HgN/A
5:50 PM63 °FPassing clouds.3 mph64%30.15 "HgN/A
5:20 PM63 °FPassing clouds.3 mph64%30.15 "HgN/A
4:50 PM63 °FSunny.2 mph68%30.15 "Hg10 mi
4:20 PM63 °FPassing clouds.5 mph68%30.15 "HgN/A
3:50 PM63 °FPassing clouds.3 mph64%30.15 "HgN/A
3:20 PM63 °FPassing clouds.5 mph68%30.15 "HgN/A
2:50 PM63 °FPassing clouds.5 mph73%30.15 "HgN/A
2:20 PM61 °FPassing clouds.7 mph77%30.18 "HgN/A
1:50 PM61 °FPassing clouds.6 mph72%30.18 "HgN/A
1:20 PM59 °FPassing clouds.8 mph77%30.18 "HgN/A
12:50 PM59 °FSunny.10 mph77%30.18 "Hg10 mi
12:20 PM57 °FSunny.9 mph82%30.18 "Hg10 mi
11:50 AM55 °FPartly sunny.9 mph88%30.21 "HgN/A
11:20 AM54 °FBroken clouds.12 mph88%30.21 "HgN/A
10:50 AM52 °FScattered clouds.9 mph94%30.21 "HgN/A
10:20 AM52 °FScattered clouds.10 mph88%30.21 "HgN/A
9:50 AM52 °FScattered clouds.8 mph88%30.21 "HgN/A
9:20 AM50 °FScattered clouds.9 mph88%30.21 "HgN/A
8:50 AM50 °FBroken clouds.8 mph88%30.18 "HgN/A
8:20 AM48 °FPartly sunny.9 mph94%30.18 "HgN/A
Weather by CustomWeather, © 2014

See weather overviewHow to use our weather pages